Weather Roundup
Issued by NWS

Home | Current Version | Previous Version | Text Only | Print | Product List | Glossary On
Versions: 1 2 3 4 5 6 7 8 9 10 11 12 13 14 15 16 17 18 19 20 21 22 23 24 25 26 27 28 29 30 31 32 33 34 35 36 37 38 39 40 41 42 43 44 45 46 47 48 49 50
139
NZUS93 KARX 240959
HRRWXR

CURRENT HOURLY OBSERVATIONS ACROSS
MUCH OF THE UPPER MISSISSIPPI VALLEY
NATIONAL WEATHER SERVICE LA CROSSE WI
500 AM CDT WED MAY 24 2017


...SOUTHEAST MINNESOTA...


CITY           SKY/WX    TMP DP  RH WIND       PRES   REMARKS
ROCHESTER      CLOUDY    47  46  97 N12       29.74S
ROCHESTER/MAYO NOT AVBL
WINONA         CLOUDY    52  46  82 N5        29.73F
AUSTIN         PTCLDY    46  45  93 N6        29.73S
ALBERT LEA     CLOUDY    48  46  93 N9        29.75R
DODGE CENTER   CLOUDY    46  45  93 N9        29.74S
PRESTON        CLOUDY    49  46  90 N6        29.73S
OWATONNA       PTCLDY    46  43  87 N7        29.76S
FARIBAULT      CLOUDY    46  45  93 N12G20    29.77F
$$

...ELSEWHERE IN MINNESOTA...


CITY           SKY/WX    TMP DP  RH WIND       PRES   REMARKS
MINNEAPOLIS    PTCLDY    47  42  83 N9        29.78F
INTNL FALLS    CLEAR     31  29  92 CALM      29.87F FOG
DULUTH         PTCLDY    45  44  97 NE7       29.82S
RED WING       CLOUDY    48  43  81 NE3       29.75S
REDWOOD FALLS  CLEAR     46  44  93 N7        29.80S
MANKATO        NOT AVBL
WORTHINGTON    CLEAR     43  42  97 N9        29.80S
FAIRMONT       CLEAR     45  44  97 N12       29.77S
$$

...SOUTHWEST WISCONSIN...


CITY           SKY/WX    TMP DP  RH WIND       PRES   REMARKS
LA CROSSE      CLOUDY    52  49  89 N6        29.71F
PRAIRIE DU CHI NOT AVBL
BOSCOBEL       CLOUDY    52  49  89 N6        29.68S
LONE ROCK      NOT AVBL
PLATTEVILLE    CLOUDY    52  52  99 NE10      29.66S
FORT MC COY    NOT AVBL
CAMP DOUGLAS   CLOUDY    50  50 100 N5        29.70S
MAUSTON-NEW LI NOT AVBL
VIROQUA        CLOUDY    48  48  97 MISG      29.70S
WIS DELLS      CLOUDY    49  47  95 NE6       29.68S FOG
$$

...ELSEWHERE IN WISCONSIN...


CITY           SKY/WX    TMP DP  RH WIND       PRES   REMARKS
MILWAUKEE      LGT RAIN  48  47  96 N10       29.65S VSB 1
MADISON        CLOUDY    50  48  93 NE7       29.66S
GREEN BAY      CLOUDY    49  49 100 NE15      29.69S
EAU CLAIRE     NOT AVBL
BLACK RVR FLS  RAIN      50  50 100 N5        29.72S
MEDFORD        CLOUDY    46  43  89 N7        29.74S
WAUSAU         LGT RAIN  47  46  97 N3        29.72R
WIS RAPIDS     LGT RAIN  49  47  93 NE9G18    29.72S FOG
MARSHFIELD     LGT RAIN  49  46  90 NE9       29.71S
RICE LAKE      CLOUDY    46  42  86 N12       29.79S
$$

...NORTHEAST IOWA...


CITY           SKY/WX    TMP DP  RH WIND       PRES   REMARKS
WATERLOO       LGT RAIN  52  49  89 N10       29.67S
DUBUQUE        CLOUDY    52  51  97 NE7       29.64F FOG
DECORAH        CLOUDY    50  46  87 NE7       29.69S
MASON CITY     CLOUDY    49  45  86 N14       29.73S
CHARLES CITY   CLOUDY    50  48  93 NE10      29.71S
OELWEIN        CLOUDY    52  52 100 NE13      29.67F
$$

...ELSEWHERE IN IOWA...


CITY           SKY/WX    TMP DP  RH WIND       PRES   REMARKS
DES MOINES     LGT RAIN  52  50  93 N7        29.68S
IOWA CITY      CLOUDY    50  47  89 W3        29.65F
FORT DODGE     CLEAR     48  46  93 N7        29.73S
MARSHALLTOWN   CLOUDY    52  51  97 N12       29.67R
CEDAR RAPIDS   CLOUDY    49  49 100 CALM      29.63F
$$

...NORTHERN ILLINOIS...


CITY           SKY/WX    TMP DP  RH WIND       PRES   REMARKS
CHICAGO-OHARE  LGT RAIN  53  51  93 NE7       29.60F
CHICAGO-MIDWAY LGT RAIN  55  54  96 NE12      29.59F FOG
MOLINE         PTCLDY    48  45  89 CALM      29.62F
ROCKFORD       CLOUDY    54  53  97 NE8       29.64F FOG
PEORIA         CLOUDY    52  52 100 NW3       29.60F FOG
$$

NOTE: "FAIR" INDICATES FEW OR NO CLOUDS BELOW 12,000 FEET WITH NO
SIGNIFICANT WEATHER AND/OR OBSTRUCTIONS TO VISIBILITY. WIND
SPEEDS ARE IN MILES-PER-HOUR.




USA.gov is the U.S. government's official web portal to all federal, state and local government web resources and services.